Location: Unspecified
(0.0000°N, 0.0000°E)
Time: 05:09:52
(UTC+00:00)

Explorer 7 - Pass Details

Date: 04 October 2020
Orbit: 484 x 678 km, 50.3° (Epoch: 28 October)

Event Time Altitude Azimuth Distance (km) Brightness Sun altitude
Rises 08:05:18 0° 314° (NW) 2,998 10.2 34.0°
Reaches altitude 10° 08:07:44 10° 309° (NW) 2,072 9.4 34.6°
Maximum altitude 08:12:23 51° 234° (SW) 809 7.8 35.8°
Drops below altitude 10° 08:16:50 10° 158° (SSE) 1,984 10.1 36.9°
Sets 08:19:08 0° 152° (SSE) 2,859 10.8 37.5°
